SFJ2101 RKPK-RJFF

Flight info

Callsign SFJ2101
Flight time N/A
Altitude 27000
Route OPONO3 BESNA Y209 IKE
Aircraft A320/M-SDE3FGHIRWY/LB1

Departure

Time 2026-05-04 13:51
Airport Gimhae International Airport (RKPK)

Arrival

Time N/A
Airport Fukuoka Airport (RJFF)
Time Latitude Longitude Altitude Speed Heading
2026-05-04 13:28 35.17099 128.94588 18 ft 0 kts 67°
2026-05-04 13:44 35.17097 128.94583 18 ft 2 kts 67°
2026-05-04 13:45 35.17091 128.94566 18 ft 2 kts 67°
2026-05-04 13:45 35.17085 128.94550 19 ft 2 kts 67°
2026-05-04 13:45 35.17079 128.94533 18 ft 2 kts 71°
2026-05-04 13:45 35.17079 128.94514 18 ft 2 kts 111°
2026-05-04 13:46 35.17088 128.94499 18 ft 2 kts 144°
2026-05-04 13:46 35.17099 128.94492 18 ft 0 kts 170°
2026-05-04 13:46 35.17106 128.94492 18 ft 1 kts 174°
2026-05-04 13:46 35.17107 128.94492 18 ft 0 kts 174°
2026-05-04 13:48 35.17102 128.94492 18 ft 2 kts 174°
2026-05-04 13:48 35.17064 128.94498 18 ft 8 kts 174°
2026-05-04 13:48 35.17003 128.94470 18 ft 12 kts 242°
2026-05-04 13:49 35.16989 128.94347 15 ft 16 kts 264°
2026-05-04 13:49 35.16977 128.94220 17 ft 9 kts 262°
2026-05-04 13:49 35.16972 128.94179 18 ft 0 kts 263°
2026-05-04 13:49 35.16970 128.94159 18 ft 5 kts 263°
2026-05-04 13:50 35.16966 128.94089 18 ft 10 kts 285°
2026-05-04 13:50 35.17004 128.94054 18 ft 0 kts 352°
2026-05-04 13:50 35.17027 128.94051 18 ft 14 kts 353°
2026-05-04 13:50 35.17406 128.94002 19 ft 91 kts 352°
2026-05-04 13:51 35.18259 128.93896 26 ft 151 kts 355°
2026-05-04 13:51 35.19415 128.93755 375 ft 171 kts 354°
2026-05-04 13:51 35.20554 128.93622 1192 ft 163 kts 349°
2026-05-04 13:51 35.21499 128.92929 1951 ft 165 kts 303°
2026-05-04 13:52 35.21061 128.90021 2790 ft 203 kts 249°
2026-05-04 13:52 35.20834 128.88300 3165 ft 212 kts 283°
2026-05-04 13:52 35.21456 128.86626 3560 ft 226 kts 306°
2026-05-04 13:53 35.22355 128.84949 4030 ft 245 kts 304°
2026-05-04 13:53 35.23302 128.83105 4596 ft 257 kts 304°
2026-05-04 13:53 35.24253 128.81247 4947 ft 260 kts 304°
2026-05-04 13:54 35.26247 128.77376 5460 ft 286 kts 304°
2026-05-04 13:54 35.27332 128.75394 6647 ft 279 kts 312°
2026-05-04 13:54 35.30579 128.73247 8761 ft 272 kts 332°
2026-05-04 13:55 35.31959 128.71642 9476 ft 278 kts 300°
2026-05-04 13:55 35.31813 128.67027 10004 ft 293 kts 238°
2026-05-04 13:55 35.30296 128.65379 10006 ft 299 kts 211°
2026-05-04 13:56 35.28317 128.64447 10002 ft 302 kts 194°
2026-05-04 13:56 35.26228 128.64287 10017 ft 305 kts 174°
2026-05-04 13:56 35.22437 128.66513 10009 ft 305 kts 144°
2026-05-04 13:57 35.20683 128.67996 9990 ft 305 kts 145°
2026-05-04 13:57 35.18883 128.69475 9995 ft 305 kts 146°
2026-05-04 13:58 35.13311 128.73875 11016 ft 341 kts 147°
2026-05-04 13:58 35.09163 128.77092 12433 ft 362 kts 147°
2026-05-04 13:58 35.07003 128.78760 13346 ft 366 kts 147°
2026-05-04 13:59 35.04865 128.80409 14248 ft 370 kts 147°
2026-05-04 13:59 35.02663 128.82108 15128 ft 375 kts 148°
2026-05-04 13:59 34.98175 128.85564 16656 ft 391 kts 148°
2026-05-04 14:00 34.95801 128.87389 17035 ft 409 kts 149°
2026-05-04 14:00 34.90670 128.91321 17120 ft 457 kts 148°
2026-05-04 14:00 34.87954 128.93402 17102 ft 460 kts 148°
2026-05-04 14:01 34.85245 128.95480 17104 ft 461 kts 148°
2026-05-04 14:01 34.82521 128.97568 17104 ft 462 kts 148°
2026-05-04 14:01 34.78138 129.00920 17113 ft 462 kts 148°
2026-05-04 14:02 34.74789 129.03481 17102 ft 463 kts 148°
2026-05-04 14:02 34.72058 129.05566 17103 ft 462 kts 148°
2026-05-04 14:02 34.69307 129.07665 17106 ft 463 kts 148°
2026-05-04 14:02 34.66575 129.09746 17102 ft 463 kts 149°
2026-05-04 14:03 34.63873 129.11804 17101 ft 464 kts 149°
2026-05-04 14:03 34.61124 129.13892 17101 ft 464 kts 149°
2026-05-04 14:03 34.58350 129.15973 17105 ft 464 kts 149°
2026-05-04 14:03 34.55821 129.17860 17099 ft 464 kts 149°
2026-05-04 14:04 34.50359 129.21931 17095 ft 465 kts 149°
2026-05-04 14:04 34.47866 129.23787 17093 ft 466 kts 149°
2026-05-04 14:04 34.45112 129.25838 17092 ft 466 kts 149°
2026-05-04 14:05 34.39975 129.29657 17093 ft 466 kts 149°
2026-05-04 14:05 34.37311 129.31638 17091 ft 466 kts 150°
2026-05-04 14:05 34.34635 129.33624 17092 ft 466 kts 150°
2026-05-04 14:06 34.31991 129.35585 17094 ft 466 kts 150°
2026-05-04 14:06 34.29326 129.37563 17094 ft 466 kts 150°
2026-05-04 14:06 34.26553 129.39612 17099 ft 466 kts 150°
2026-05-04 14:06 34.23780 129.41666 17096 ft 466 kts 150°
2026-05-04 14:07 34.21073 129.43671 17097 ft 467 kts 150°
2026-05-04 14:07 34.18270 129.45746 17088 ft 466 kts 150°
2026-05-04 14:07 34.15625 129.47702 17087 ft 466 kts 150°
2026-05-04 14:07 34.13231 129.49469 17100 ft 467 kts 150°
2026-05-04 14:08 34.10865 129.51213 17095 ft 467 kts 150°
2026-05-04 14:08 34.07984 129.53337 17100 ft 467 kts 150°
2026-05-04 14:08 34.05226 129.55366 17096 ft 467 kts 150°
2026-05-04 14:08 34.02524 129.57356 17099 ft 467 kts 150°
2026-05-04 14:09 33.99571 129.59528 17100 ft 468 kts 150°
2026-05-04 14:10 33.97284 129.61206 17102 ft 467 kts 150°
2026-05-04 14:10 33.94636 129.63150 17102 ft 467 kts 150°
2026-05-04 14:11 33.90892 129.65897 17101 ft 467 kts 151°
2026-05-04 14:11 33.84606 129.70499 17101 ft 466 kts 151°
2026-05-04 14:11 33.80632 129.73402 17104 ft 466 kts 151°
2026-05-04 14:12 33.77512 129.76134 17080 ft 470 kts 136°
2026-05-04 14:12 33.75637 129.79343 16676 ft 461 kts 115°
2026-05-04 14:12 33.75162 129.86435 15573 ft 407 kts 68°
2026-05-04 14:13 33.76459 129.89198 15162 ft 380 kts 44°
2026-05-04 14:13 33.78374 129.91269 14748 ft 365 kts 37°
2026-05-04 14:13 33.80109 129.93547 14288 ft 369 kts 52°
2026-05-04 14:13 33.81428 129.96230 13835 ft 370 kts 60°
2026-05-04 14:14 33.82201 129.98178 13516 ft 369 kts 63°
2026-05-04 14:14 33.83651 130.03900 12569 ft 370 kts 90°
2026-05-04 14:14 33.83023 130.06857 12092 ft 370 kts 117°
2026-05-04 14:15 33.79192 130.10492 11154 ft 361 kts 167°
2026-05-04 14:15 33.74420 130.11649 10354 ft 349 kts 170°
2026-05-04 14:16 33.69910 130.12894 9988 ft 313 kts 168°
2026-05-04 14:16 33.67783 130.13524 9981 ft 309 kts 167°
2026-05-04 14:17 33.63604 130.14772 9983 ft 309 kts 167°
2026-05-04 14:17 33.61503 130.15401 9986 ft 308 kts 167°
2026-05-04 14:17 33.57317 130.16678 9982 ft 309 kts 163°
2026-05-04 14:18 33.55316 130.17654 9982 ft 310 kts 153°
2026-05-04 14:18 33.51766 130.20638 9982 ft 311 kts 141°
2026-05-04 14:19 33.48438 130.23827 9978 ft 312 kts 141°
2026-05-04 14:19 33.47275 130.24931 9982 ft 312 kts 141°
2026-05-04 14:19 33.45571 130.26544 10001 ft 313 kts 142°
2026-05-04 14:19 33.43878 130.28136 9992 ft 312 kts 142°
2026-05-04 14:20 33.42516 130.29411 9984 ft 312 kts 142°
2026-05-04 14:20 33.40789 130.31027 9983 ft 312 kts 142°
2026-05-04 14:20 33.39112 130.32596 9681 ft 314 kts 142°
2026-05-04 14:21 33.35718 130.35763 8941 ft 310 kts 142°
2026-05-04 14:21 33.34018 130.37349 8604 ft 307 kts 141°
2026-05-04 14:21 33.32699 130.38580 8332 ft 296 kts 141°
2026-05-04 14:21 33.31717 130.39496 8126 ft 288 kts 141°
2026-05-04 14:22 33.31405 130.39786 8064 ft 287 kts 141°
2026-05-04 14:22 33.29637 130.41435 7703 ft 285 kts 141°
2026-05-04 14:22 33.29224 130.41820 7616 ft 284 kts 141°